FW5303 Weather Reports


time (UTC)temp
C
wind
direction
speed
KPH
gust
KPH
rain 1hr
cm
rain 24hr
cm
rain mn
cm
humidity
%
barometer
mb
20260505181535 22 215 0.0 16.1 0.00 0.00 0.00 53 1015.1
20260505180107 22 217 0.0 17.7 0.00 0.00 0.00 54 1015.1
20260505174530 21 202 0.0 17.7 0.00 0.00 0.00 55 1015.1
20260505173034 21 202 0.0 16.1 0.00 0.00 0.00 57 1015.1
20260505171605 21 214 0.0 16.1 0.00 0.00 0.00 57 1015.1
20260505164535 20 136 0.0 14.5 0.00 0.00 0.00 59 1015.2
20260505163029 20 176 0.0 8.0 0.00 0.00 0.00 60 1015.2
20260505161535 20 226 0.0 4.8 0.00 0.00 0.00 61 1015.2
20260505153029 18 241 0.0 3.2 0.00 0.00 0.00 64 1015.0
20260505151607 18 259 0.0 4.8 0.00 0.00 0.00 66 1015.0
20260505140107 15 199 0.0 17.7 0.00 0.00 0.00 72 1014.5
20260505130143 16 274 0.0 6.4 0.00 0.00 0.00 67 1013.7
20260505124530 16 251 0.0 6.4 0.00 0.00 0.00 67 1013.6
20260505123031 16 222 0.0 6.4 0.00 0.00 0.00 67 1013.4
20260505121534 16 223 0.0 0.0 0.00 0.00 0.00 66 1013.2
20260505120030 16 228 0.0 9.7 0.00 0.00 0.00 66 1013.1
20260505114534 17 219 0.0 24.1 0.00 0.00 0.00 65 1013.1
20260505113038 17 198 0.0 16.1 0.00 0.00 0.00 65 1013.0
20260505111536 17 194 0.0 22.5 0.00 0.00 0.00 65 1012.8
20260505101531 18 212 0.0 17.7 0.00 0.00 0.00 63 1012.3
20260505100040 17 211 0.0 19.3 0.00 0.00 0.00 65 1012.3
20260505093032 17 207 0.0 22.5 0.00 0.00 0.00 67 1012.2
20260505091529 17 218 0.0 20.9 0.00 0.00 0.00 68 1012.0
20260505090031 17 207 0.0 17.7 0.00 0.00 0.00 66 1011.9
20260505084537 18 217 0.0 8.0 0.00 0.00 0.00 64 1011.8
20260505083032 17 222 0.0 19.3 0.00 0.00 0.00 65 1011.8
20260505080033 18 229 0.0 6.4 0.00 0.00 0.00 63 1011.7
20260505074536 18 219 0.0 17.7 0.00 0.00 0.00 63 1011.5
20260505073037 17 214 0.0 0.0 0.00 0.00 0.00 68 1011.5
20260505071532 16 217 0.0 4.8 0.00 0.00 0.00 69 1011.4
20260505070036 16 195 0.0 0.0 0.00 0.00 0.00 66 1011.3
20260505064534 18 268 0.0 0.0 0.00 0.00 0.00 61 1011.2
20260505063106 20 149 0.0 3.2 0.00 0.00 0.00 56 1011.1
20260505061538 20 203 0.0 20.9 0.00 0.00 0.00 54 1011.0
20260505060029 20 209 0.0 22.5 0.00 0.00 0.00 53 1010.9
20260505054530 20 213 0.0 19.3 0.00 0.00 0.00 53 1010.8
20260505053033 20 222 0.0 24.1 0.00 0.00 0.00 53 1010.7
20260505051538 20 225 0.0 9.7 0.00 0.00 0.00 52 1010.7
20260505041532 21 222 0.0 0.0 0.00 0.00 0.00 48 1010.0
20260505040048 21 215 0.0 0.0 0.00 0.00 0.00 47 1009.8
20260505034533 22 210 0.0 0.0 0.00 0.00 0.00 46 1009.5
20260505033033 22 214 0.0 6.4 0.00 0.00 0.00 46 1009.4
20260505031531 22 214 0.0 14.5 0.00 0.00 0.00 45 1009.2
20260505030038 23 214 0.0 11.3 0.00 0.00 0.00 44 1009.0
20260505024617 23 214 0.0 24.1 0.00 0.00 0.00 43 1008.7
20260505021533 24 211 0.0 22.5 0.00 0.00 0.00 43 1008.7
20260505020120 25 221 0.0 24.1 0.00 0.00 0.00 42 1008.7
20260505014533 25 221 0.0 17.7 0.00 0.00 0.00 40 1008.6
20260505013032 26 218 0.0 25.7 0.00 0.00 0.00 39 1008.5
20260505011536 26 214 0.0 17.7 0.00 0.00 0.00 38 1008.5
20260505004530 27 208 0.0 19.3 0.00 0.00 0.00 36 1008.4
20260505003031 28 209 0.0 20.9 0.00 0.00 0.00 35 1008.5
20260505001641 28 226 0.0 19.3 0.00 0.00 0.00 35 1008.5
20260505000040 28 217 0.0 17.7 0.00 0.00 0.00 35 1008.6
20260504234535 29 222 0.0 9.7 0.00 0.00 0.00 35 1008.6
20260504233036 29 211 0.0 9.7 0.00 0.00 0.00 34 1008.6
20260504231536 30 214 0.0 14.5 0.00 0.00 0.00 34 1008.7
20260504230030 30 208 0.0 16.1 0.00 0.00 0.00 34 1008.8
20260504224532 30 219 0.0 8.0 0.00 0.00 0.00 33 1008.9
20260504223035 31 250 0.0 8.0 0.00 0.00 0.00 34 1009.1
20260504221532 31 210 0.0 0.0 0.00 0.00 0.00 33 1009.2
20260504220031 31 203 0.0 17.7 0.00 0.00 0.00 33 1009.4
20260504214536 31 248 0.0 11.3 0.00 0.00 0.00 33 1009.6
20260504213031 31 194 0.0 12.9 0.00 0.00 0.00 33 1009.8
20260504211533 31 205 0.0 9.7 0.00 0.00 0.00 33 1009.9
20260504204605 31 225 0.0 12.9 0.00 0.00 0.00 32 1010.1
20260504203143 30 215 0.0 12.9 0.00 0.00 0.00 33 1010.3
20260504201534 30 205 0.0 8.0 0.00 0.00 0.00 34 1010.4
20260504200150 30 241 0.0 9.7 0.00 0.00 0.00 34 1010.6
20260504194530 29 232 0.0 11.3 0.00 0.00 0.00 34 1010.6
20260504193037 28 224 0.0 9.7 0.00 0.00 0.00 34 1010.7
20260504191608 28 240 0.0 6.4 0.00 0.00 0.00 35 1010.8
20260504190148 28 155 0.0 12.9 0.00 0.00 0.00 36 1010.9
20260504183139 27 279 1.6 16.1 0.00 0.00 0.00 37 1011.0
20260504181649 27 302 1.6 22.5 0.00 0.00 0.00 38 1011.1